Regional Weather Roundup
Issued by NWS

Home | Current Version | Previous Version | Graphics & Text | Print | Product List | Glossary On
Versions: 1 2 3 4 5 6 7 8 9 10 11 12 13 14 15 16 17 18 19 20 21 22 23 24 25 26 27 28 29 30 31 32 33 34 35 36 37 38 39 40 41 42 43 44 45 46 47 48 49 50
000
ASUS43 KLOT 210803
RWRIL

ILLINOIS REGIONAL WEATHER ROUNDUP
NATIONAL WEATHER SERVICE CHICAGO/ROMEOVILLE IL
300 AM CDT MON MAY 21 2018

NOTE: "FAIR" INDICATES FEW OR NO CLOUDS BELOW 12,000 FEET WITH NO
SIGNIFICANT WEATHER AND/OR OBSTRUCTIONS TO VISIBILITY.

* THESE STATIONS ARE NOT UNDER NWS QUALITY CONTROL. THEY ALSO MAY NOT
  REPORT WEATHER SUCH AS PRECIPITATION OR FOG.

ILZ001-002-007-009-015-016-024-210900-
NORTHWEST ILLINOIS

CITY           SKY/WX    TMP DP  RH WIND       PRES   REMARKS
MOLINE         LGT RAIN  56  54  93 E13       30.08F
SAVANNA*       RAIN      53  50  89 CALM      30.13S
$$

ILZ003-004-008-010-011-017-018-210900-
NORTH CENTRAL ILLINOIS

CITY           SKY/WX    TMP DP  RH WIND       PRES   REMARKS
ROCKFORD       LGT RAIN  51  44  77 NE7       30.16S
FREEPORT*      DRIZZLE   50  46  86 NE7       30.15F
ROCHELLE*      MOCLDY    51  48  90 E8        30.13F
DE KALB*       CLOUDY    50  49  95 E8        30.14S
PERU*          MOCLDY    55  49  79 E9        30.12S
$$

ILZ005-006-012>014-019>023-210900-
NORTHEAST ILLINOIS

CITY           SKY/WX    TMP DP  RH WIND       PRES   REMARKS
CHICAGO-OHARE  CLOUDY    49  43  80 N9        30.14F
CHICAGO-MIDWAY CLOUDY    51  46  83 N6        30.14F
AURORA         CLOUDY    53  49  86 E9        30.13S
LANSING*       CLOUDY    48  48  99 NE6       30.14F
JOLIET*        RAIN      54  53  96 NE6       30.12F
WAUKEGAN       MOCLDY    46  44  93 NE5       30.16S
DUPAGE AIRPORT CLOUDY    50  47  89 NE5       30.14S
KANKAKEE*      MOCLDY    51  49  96 NE7       30.13S
WHEELING       CLOUDY    50  43  77 CALM      30.17F
MORRIS*        CLOUDY    53  49  86 CALM      30.12S
ROMEOVILLE*    CLOUDY    51  49  92 NE7       30.13S
NORTHERLY ISL    N/A     48  44  86 MISG        N/A
$$

LMZ740>746-210900-
SOUTHERN LAKE MICHIGAN

STATION/POSITION SKY/WX   TEMP    WIND        PRES    VSBY  WAVE
                          AIR SEA DIR/SP/G                  HT/PER
                          (F)     (DEG/KT/KT) (MB)    (MI)  (FT/S)
WILMETTE HARBOR            44 46  350/  6/ 10   N/A           2/ 5
HARRISON CRIB              46      10/  9/  9   N/A
BURNHAM HARBOR             47     340/  6/  9   N/A
CALUMET HARBOR             47      10/  5/  8 1020.3F
BURNS HARBOR               50      50/  4/  6 1021.0F
MICHIGAN CITY 6N           52 53   70/  6/  6   N/A           2/ 5
ST. JOSEPH                 53 52   40/  6/  6 1021.3F         2/ 5
$$

ILZ025>027-034>036-040-047-049-050-058-095>099-210900-
WEST-CENTRAL ILLINOIS

CITY           SKY/WX    TMP DP  RH WIND       PRES   REMARKS
QUINCY         LGT RAIN  66  64  93 SE10G22   29.99F
GALESBURG*     RAIN      56  52  88 E6        30.09S
MACOMB*        LGT RAIN  58  56  94 E7        30.10R
JACKSONVILLE*  RAIN      65  64  97 NE8       30.05F
PITTSFIELD*    LGT RAIN  67  66  99 SE3       30.04F
$$

ILZ028>032-037-038-041>044-048-051>054-059>061-210900-
CENTRAL ILLINOIS

CITY           SKY/WX    TMP DP  RH WIND       PRES   REMARKS
PONTIAC        CLOUDY    55  53  94 E10       30.11F
BLOOMINGTON    CLOUDY    57  52  83 NE14      30.09F
DECATUR        LGT RAIN  63  58  83 E5        30.09R
PEORIA         LGT RAIN  58  53  84 E8        30.08F
LACON*         CLOUDY    54  51  89 NE3       30.09F
LINCOLN*       HVY RAIN  61  58  87 E6        30.07S
SPRINGFIELD    LGT RAIN  64  61  90 NW7       30.08R
TAYLORVILLE    LGT RAIN  67  66  97 SW7       30.07S
$$

ILZ033-039-045-046-055>057-062-063-210900-
EAST-CENTRAL ILLINOIS

CITY           SKY/WX    TMP DP  RH WIND       PRES   REMARKS
CHAMPAIGN      CLOUDY    61  58  90 NE10      30.07F
DANVILLE*      FAIR      60  60  99 NE6       30.06S
RANTOUL*       CLOUDY    60  58  93 NE9       30.08F
MATTOON        FAIR      67  65  93 CALM      30.06F
PARIS*         FAIR      65  64  96 CALM      30.08S
$$

ILZ079-100>102-210900-
SOUTHWEST ILLINOIS

CITY           SKY/WX    TMP DP  RH WIND       PRES   REMARKS
ALTON          CLOUDY    64  64 100 CALM      30.03F
BELLEVILLE     CLOUDY    65  63  95 CALM      30.02F
CAHOKIA*       LGT RAIN  65  63  93 E3        30.02F
SPARTA*        CLOUDY    64  64 100 SE5       30.07F
$$

ILZ064>066-069>071-074>076-080>082-084>086-088>090-092>094-210900-
SOUTH-CENTRAL ILLINOIS

CITY           SKY/WX    TMP DP  RH WIND       PRES   REMARKS
CARBONDALE     FAIR      68  65  90 CALM      30.08F
CAIRO*         RAIN      68  67  94 W9        30.09S
EFFINGHAM*     FAIR      69  66  89 SW7       30.09S
MARION         FAIR      67  66  99 CALM      30.10S
CENTRALIA*     CLOUDY    67  66  94 W7        30.06F
SALEM*         MOCLDY    70  66  87 SW10      30.07F
$$

ILZ067-068-072-073-078-083-087-091-210900-
SOUTHEAST ILLINOIS

CITY           SKY/WX    TMP DP  RH WIND       PRES   REMARKS
LAWRENCEVILLE  FAIR      70  64  81 W6        30.06F
FLORA*         FAIR      69  65  87 SW6       30.07F
FAIRFIELD*     FAIR      67  65  94 CALM      30.06F
HARRISBURG*    FAIR      68  66  96 W9        30.08F
ROBINSON*      FAIR      67  66  99 CALM      30.07S
CARMI*         FAIR      65  65 100 W6        30.07R
$$

ABBREVIATIONS USED IN REMARKS
   TC - TEMPERATURE IN CELSIUS
  WCI - WIND CHILL INDEX
   HX - HEAT INDEX
  VSB - VISIBILITY
$$





USA.gov is the U.S. government's official web portal to all federal, state and local government web resources and services.